Weather History for K8D3 - June, 2013

Change the Weather History Date:

Wednesday, June 12, 2013

  Actual Average Record
Temperature  
Mean Temperature 63 °F 65 °F  
Max Temperature 73 °F 76 °F 97 °F (1976)
Min Temperature 53 °F 54 °F 40 °F (2012)
Degree Days  
Heating Degree Days 2 2  
Month to date heating degree days 69 40  
Since 1 June heating degree days 69 40  
Since 1 July heating degree days 9142 8261  
Cooling Degree Days 0 3  
Month to date cooling degree days 3 25  
Year to date cooling degree days 28 48  
Since 1 June cooling degree days 3 25  
Growing Degree Days 16 (Base 50)    
Moisture  
Dew Point 55 °F    
Average Humidity 73    
Maximum Humidity 97    
Minimum Humidity 49    
Precipitation  
Precipitation 0.08 in 0.14 in 2.43 in (1937)
Month to date precipitation 1.29 1.54  
Year to date precipitation 10.63 8.52  
Sea Level Pressure  
Sea Level Pressure 29.90 in    
Wind  
Wind Speed 11 mph (NNW)    
Max Wind Speed 28 mph    
Max Gust Speed 33 mph    
T = Trace of Precipitation, MM = Missing Value Source: NWS Daily Summary

Daily Weather History Graph

Daily Weather History Graph

Search for Another Location

Airport or City:

Trip Planner

Search our weather history database for the weather conditions in past years. The results will help you decide how hot, cold, wet, or windy it might be!

Date:

Astronomy

Jun. 12, 2013 Rise Set
Actual Time 5:38 AM CDT 9:17 PM CDT
Civil Twilight 5:00 AM CDT 9:55 PM CDT
Nautical Twilight 4:09 AM CDT 10:46 PM CDT
Astronomical Twilight 3:00 AM CDT 11:55 PM CDT
Moon 9:27 AM CDT (6/12) 11:43 PM CDT (6/12)
Length of Visible Light 16h 55m
Length of Day
15h 39m
Waxing Crescent, 14% of the Moon is Illuminated
Jun 12
Waxing Crescent
Jun 16
First Quarter
Jun 23
Full
Jun 29
Last Quarter
Jul 8
New

Hourly Weather History & Observations

Time (CDT) Temp. Dew Point Humidity Pressure Visibility Wind Dir Wind Speed Gust Speed Precip Events Conditions
12:56 AM 62.1 °F 59.0 °F 90% 29.83 in - Calm Calm - N/A   Unknown
1:56 AM 61.0 °F 57.0 °F 87% 29.83 in - Calm Calm - N/A   Unknown
2:56 AM 60.1 °F 59.0 °F 96% 29.83 in - Calm Calm - N/A   Unknown
3:56 AM 61.0 °F 57.0 °F 87% 29.79 in - NNE 6.9 mph - N/A   Unknown
4:56 AM 61.0 °F 55.9 °F 83% 29.81 in - Calm Calm - N/A   Unknown
5:56 AM 61.0 °F 53.1 °F 75% 29.89 in - West 5.8 mph - N/A   Unknown
6:56 AM 59.0 °F 54.0 °F 83% 29.81 in - East 11.5 mph 18.4 mph 0.04 in   Unknown
7:56 AM 61.0 °F 54.0 °F 78% 29.77 in - SW 3.5 mph - 0.04 in   Unknown
8:56 AM 64.0 °F 55.9 °F 75% 29.82 in - SW 4.6 mph - N/A   Unknown
9:56 AM 66.9 °F 55.0 °F 66% 29.86 in - NW 10.4 mph - N/A   Unknown
10:56 AM 63.0 °F 55.9 °F 78% 29.89 in - NNW 12.7 mph - N/A   Unknown
11:56 AM 63.0 °F 57.0 °F 81% 29.90 in - North 12.7 mph - N/A   Unknown
12:56 PM 64.9 °F 57.9 °F 78% 29.91 in - North 12.7 mph - N/A   Unknown
1:56 PM 71.1 °F 55.9 °F 59% 29.91 in - North 18.4 mph - N/A   Unknown
2:56 PM 73.0 °F 57.0 °F 57% 29.91 in - North 20.7 mph 27.6 mph N/A   Unknown
3:56 PM 73.0 °F 55.0 °F 53% 29.92 in - North 24.2 mph 29.9 mph N/A   Unknown
4:56 PM 71.1 °F 52.0 °F 51% 29.94 in - North 20.7 mph - N/A   Unknown
5:56 PM 69.1 °F 54.0 °F 58% 29.94 in - North 18.4 mph - N/A   Unknown
6:56 PM 69.1 °F 54.0 °F 58% 29.94 in - North 15.0 mph - N/A   Unknown
7:56 PM 69.1 °F 52.0 °F 54% 29.97 in - North 13.8 mph - N/A   Unknown
8:56 PM 66.9 °F 54.0 °F 63% 29.98 in - North 9.2 mph - N/A   Unknown
9:56 PM 62.1 °F 53.1 °F 72% 30.01 in - NNW 10.4 mph - N/A   Unknown
10:56 PM 59.0 °F 51.1 °F 75% 30.04 in - NNW 8.1 mph - N/A   Unknown
11:56 PM 55.9 °F 50.0 °F 80% 30.05 in - NW 6.9 mph - N/A   Unknown